Location: Willow Grove Area
(40.1625°N, 75.1113°W)
Time: 00:23:04
(UTC-04:00)

Envisat - Visible Passes

Search period start: 27 April 2018 00:00
Search period end: 07 May 2018 00:00
Orbit: 764 x 766 km, 98.2° (Epoch: 26 April)

Date Brightness Start Highest point End Pass type
(mag) Time Alt. Az. Time Alt. Az. Time Alt. Az.
27 Apr 5.2 21:24:00 10° SSW 21:28:00 23° W 21:32:02 10° NW visible
28 Apr 3.8 20:46:09 10° S 20:51:04 52° W 20:56:03 10° NNW visible
29 Apr 5.7 21:51:34 10° WSW 21:53:50 13° W 21:56:07 10° WNW visible
30 Apr 4.8 21:12:23 10° SSW 21:16:46 29° W 21:21:11 10° NW visible
01 May 3.4 20:34:52 10° S 20:39:54 67° W 20:44:59 10° NNW visible
02 May 5.6 21:39:22 10° SW 21:42:34 17° W 21:45:47 10° NW visible
03 May 4.4 21:00:53 10° SSW 21:05:33 37° W 21:10:16 10° NNW visible
04 May 3.1 20:23:40 10° SSE 20:28:45 85° WSW 20:33:52 10° NNW visible
05 May 5.3 21:27:30 10° SW 21:31:19 21° W 21:35:09 10° NW visible
06 May 4.0 20:49:29 10° S 20:54:22 47° W 20:59:17 10° NNW visible
